TimeEST,TemperatureF,Dew PointF,Humidity,Sea Level PressureIn,VisibilityMPH,Wind Direction,Wind SpeedMPH,Gust SpeedMPH,PrecipitationIn,Events,Conditions,WindDirDegrees,DateUTC
12:53 AM,33.1,30.9,92,30.09,0.5,Calm,Calm,-,0.02,Fog-Rain,Light Rain,0,2014-01-11 05:53:00
1:42 AM,33.1,30.9,92,30.05,0.5,Calm,Calm,-,0.02,Fog-Rain,Light Rain,0,2014-01-11 06:42:00
1:53 AM,33.1,30.9,92,30.06,0.2,Calm,Calm,-,0.02,Fog-Rain,Light Rain,0,2014-01-11 06:53:00
2:01 AM,33.1,30.9,92,30.04,0.2,Calm,Calm,-,0.01,Fog-Rain,Light Rain,0,2014-01-11 07:01:00
2:53 AM,33.1,30.9,92,30.02,0.2,Calm,Calm,-,0.02,Fog-Rain,Light Rain,0,2014-01-11 07:53:00
3:53 AM,33.1,32.0,96,29.98,0.2,Calm,Calm,-,0.00,Fog,Fog,0,2014-01-11 08:53:00
4:53 AM,33.1,32.0,96,29.95,0.2,Calm,Calm,-,0.02,Fog-Rain,Light Rain,0,2014-01-11 09:53:00
5:53 AM,33.1,30.9,92,29.91,0.2,Calm,Calm,-,0.01,Fog-Rain,Light Rain,0,2014-01-11 10:53:00
6:53 AM,33.1,32.0,96,29.86,0.5,Calm,Calm,-,0.01,Fog,Fog,0,2014-01-11 11:53:00
7:53 AM,33.1,32.0,96,29.81,0.2,Calm,Calm,-,0.02,Fog,Fog,0,2014-01-11 12:53:00
8:53 AM,33.1,32.0,96,29.76,0.2,Calm,Calm,-,N/A,Fog,Fog,0,2014-01-11 13:53:00
9:53 AM,34.0,33.1,96,29.72,0.2,Calm,Calm,-,0.01,Fog-Rain,Light Rain,0,2014-01-11 14:53:00
10:53 AM,35.1,33.1,92,29.67,0.2,Calm,Calm,-,0.00,Fog,Fog,0,2014-01-11 15:53:00
11:16 AM,35.1,34.0,96,29.62,0.2,Calm,Calm,-,0.07,Fog-Rain,Rain,0,2014-01-11 16:16:00
11:30 AM,35.1,35.1,100,29.61,0.2,Calm,Calm,-,0.08,Fog-Rain,Light Rain,0,2014-01-11 16:30:00
11:53 AM,36.0,35.1,97,29.57,0.2,Calm,Calm,-,0.10,Fog-Rain,Light Rain,0,2014-01-11 16:53:00
12:16 PM,37.0,36.0,96,29.54,0.2,Calm,Calm,-,0.01,Fog,Fog,0,2014-01-11 17:16:00
12:31 PM,36.0,35.1,97,29.53,0.2,Calm,Calm,-,0.01,Fog,Fog,0,2014-01-11 17:31:00
12:48 PM,35.6,35.6,100,29.52,0.2,Calm,Calm,-,0.01,Fog-Rain,Light Rain,0,2014-01-11 17:48:00
12:53 PM,36.0,35.1,97,29.52,0.2,North,3.5,-,0.01,Fog-Rain,Light Rain,350,2014-01-11 17:53:00
1:00 PM,37.0,35.1,93,29.51,0.2,North,3.5,-,0.00,Fog-Rain,Light Rain,350,2014-01-11 18:00:00
1:07 PM,37.0,36.0,96,29.52,0.2,WNW,4.6,-,0.00,Fog-Rain,Light Rain,290,2014-01-11 18:07:00
1:18 PM,43.0,41.0,93,29.54,1.2,Variable,5.8,-,0.01,Rain,Light Rain,0,2014-01-11 18:18:00
1:22 PM,45.0,44.1,97,29.54,2.0,West,4.6,-,0.01,Rain,Light Rain,260,2014-01-11 18:22:00
1:25 PM,45.0,44.1,97,29.53,3.0,Variable,5.8,-,0.02,Rain,Light Rain,0,2014-01-11 18:25:00
1:53 PM,43.0,42.1,97,29.50,4.0,Calm,Calm,-,0.02,Rain,Light Rain,0,2014-01-11 18:53:00
2:53 PM,43.0,42.1,97,29.48,9.0,South,8.1,-,0.01,Rain,Light Rain,180,2014-01-11 19:53:00
3:33 PM,44.1,43.0,96,29.45,7.0,West,3.5,-,0.00,Rain,Light Rain,280,2014-01-11 20:33:00
3:53 PM,44.1,43.0,96,29.42,5.0,SSW,3.5,-,0.00,Rain,Light Rain,210,2014-01-11 20:53:00
4:21 PM,43.0,42.1,97,29.40,1.8,WNW,6.9,-,0.01,,Overcast,290,2014-01-11 21:21:00
4:29 PM,44.1,42.1,93,29.44,3.0,West,8.1,19.6,0.01,,Overcast,260,2014-01-11 21:29:00
4:53 PM,45.0,44.1,97,29.44,10.0,WSW,4.6,-,0.01,,Overcast,250,2014-01-11 21:53:00
5:49 PM,39.2,39.2,100,29.38,1.0,SSE,4.6,-,N/A,,Overcast,150,2014-01-11 22:49:00
5:53 PM,41.0,39.9,96,29.39,0.8,South,3.5,-,N/A,,Overcast,190,2014-01-11 22:53:00
6:05 PM,41.0,39.9,96,29.39,1.0,Calm,Calm,-,N/A,,Overcast,0,2014-01-11 23:05:00
6:10 PM,43.0,42.1,97,29.39,2.0,Calm,Calm,-,0.00,Rain,Light Rain,0,2014-01-11 23:10:00
6:17 PM,41.0,41.0,100,29.39,1.0,SE,8.1,-,0.02,Rain,Rain,140,2014-01-11 23:17:00
6:19 PM,39.9,39.9,100,29.38,0.8,SE,8.1,-,0.02,Rain,Rain,140,2014-01-11 23:19:00
6:38 PM,42.1,41.0,96,29.37,1.0,Calm,Calm,-,0.03,,Overcast,0,2014-01-11 23:38:00
6:48 PM,42.8,41.0,93,29.38,0.5,WNW,4.6,-,0.03,Fog,Fog,290,2014-01-11 23:48:00
6:53 PM,39.9,39.0,97,29.38,0.5,NW,3.5,-,0.03,Fog,Fog,310,2014-01-11 23:53:00
7:15 PM,41.0,39.9,96,29.38,0.5,Calm,Calm,-,N/A,Fog,Fog,0,2014-01-12 00:15:00
7:22 PM,37.9,37.9,100,29.38,0.2,Calm,Calm,-,N/A,Fog,Fog,0,2014-01-12 00:22:00
7:53 PM,39.0,39.0,100,29.41,0.5,South,5.8,-,N/A,Fog,Fog,190,2014-01-12 00:53:00
8:00 PM,41.0,39.9,96,29.39,1.2,SSW,3.5,-,N/A,,Overcast,210,2014-01-12 01:00:00
8:06 PM,43.0,42.1,97,29.40,3.0,SW,3.5,-,N/A,,Overcast,220,2014-01-12 01:06:00
8:29 PM,42.1,41.0,96,29.45,4.0,NW,11.5,-,N/A,,Overcast,310,2014-01-12 01:29:00
8:34 PM,43.0,42.1,97,29.46,2.5,West,5.8,-,0.01,Rain,Rain,260,2014-01-12 01:34:00
8:42 PM,44.1,43.0,96,29.45,3.0,West,6.9,-,0.02,Rain,Light Rain,260,2014-01-12 01:42:00
8:53 PM,44.1,43.0,96,29.46,6.0,Calm,Calm,-,0.03,Rain,Light Rain,0,2014-01-12 01:53:00
9:53 PM,44.1,39.9,85,29.48,10.0,WSW,4.6,-,0.00,,Mostly Cloudy,240,2014-01-12 02:53:00
10:53 PM,46.0,37.0,71,29.50,10.0,West,8.1,-,N/A,,Overcast,270,2014-01-12 03:53:00
11:53 PM,43.0,30.9,62,29.53,10.0,Variable,6.9,16.1,N/A,,Partly Cloudy,0,2014-01-12 04:53:00